Location: Bothell
(47.7630°N, 122.2040°W)
Time: 12:08:42
(UTC-07:00)

Amateur Radio Satellites - All Passes

Search period start: 28 August 2015 11:38
Search period end: 29 August 2015 11:38
Location: Bothell, 47.7630°N, 122.2040°W

Satellite Date Start Highest point End Downlink Frequencies (MHz)
Time Altitude Azimuth
UNISAT 6 28 Aug 11:41:06 11:45:13 29° 267° (W) 11:49:19 437.425
FUNcube-1 28 Aug 11:41:09 11:45:36 51° 288° (WNW) 11:49:54 145.935
YUBILEINY 28 Aug 11:42:07 11:46:51 15° 287° (WNW) 11:51:04 435.215
COMPASS 1 28 Aug 11:45:49 11:47:55 13° 300° (WNW) 11:49:52 437.405
Cosmos 2504 28 Aug 11:51:42 12:00:18 72° 266° (W) 12:08:26 435.465 / 435.565
POLYITAN 1 28 Aug 11:59:25 12:03:28 42° 262° (W) 12:07:34 437.675
ESTCUBE 1 28 Aug 11:59:44 12:03:46 32° 96° (E) 12:07:50 437.505/2401.250
AAUSAT CUBESAT 2 28 Aug 12:00:05 12:01:34 11° 301° (WNW) 12:02:52 437.432
PHONESAT 2.4 28 Aug 12:01:45 12:03:57 16° 197° (SSW) 12:06:08 2401.200-2431.200
POPSAT HIP 1 28 Aug 12:03:41 12:07:41 38° 263° (W) 12:11:43 437.405
DUCHIFAT 1 28 Aug 12:07:48 12:11:43 36° 263° (W) 12:15:41 145.980
TIGRISAT 28 Aug 12:12:47 12:15:47 16° 272° (W) 12:18:39 435.000
QB50P2 28 Aug 12:20:09 12:23:47 26° 267° (W) 12:27:24 145.880/145.840
DX 1 28 Aug 12:20:58 12:25:22 80° 287° (WNW) 12:29:46 434.975-435.025
50 SAT 28 Aug 12:21:06 12:25:02 87° 100° (E) 12:28:54 437.505
NANOSAT C BR1 28 Aug 12:24:25 12:27:57 25° 267° (W) 12:31:27 145.865
AISAT 28 Aug 12:27:11 12:31:41 81° 102° (ESE) 12:36:11 437.250
ANTELSAT 28 Aug 12:30:00 12:31:32 11° 276° (W) 12:32:47 437.575/2403.000
BUGSAT 1 28 Aug 12:32:59 12:36:34 30° 265° (W) 12:40:12 437.445
Cosmos 2491 28 Aug 12:33:27 12:39:40 20° 307° (NW) 12:45:34 435.465 / 435.565
GONETS M04 28 Aug 12:33:33 12:38:43 17° 50° (NE) 12:44:18
TISAT 1 28 Aug 12:36:04 12:37:45 12° 87° (E) 12:39:39 437.305
QB50P1 28 Aug 12:37:01 12:40:06 19° 270° (W) 12:43:06 145.935-145.965
Oscar 11 28 Aug 12:37:52 12:39:22 11° 302° (WNW) 12:40:40 145.826/435.025
UKube-1 28 Aug 12:39:52 12:44:09 57° 288° (WNW) 12:48:24 .
CUBEBUG 1 28 Aug 12:39:54 12:44:18 67° 102° (ESE) 12:48:42 437.445
SO-50 28 Aug 12:40:58 12:43:51 15° 250° (WSW) 12:46:30 436.795
ISS 28 Aug 12:45:38 12:48:51 56° 345° (NNW) 12:52:03 145.825
PCSat 28 Aug 12:47:58 12:53:08 45° 245° (WSW) 12:58:14 145.827
SPROUT 28 Aug 12:50:51 12:54:40 29° 95° (E) 12:58:30 437.525
HUMSAT D 28 Aug 12:51:52 12:55:19 24° 295° (WNW) 12:58:39 437.325/437.525
VELOX 1 28 Aug 12:56:42 13:01:05 55° 289° (WNW) 13:05:26 145.980
DANDE 28 Aug 13:00:44 13:07:27 51° 265° (W) 13:15:20 436.750
CUSAT 1 28 Aug 13:01:30 13:08:11 39° 269° (W) 13:15:29 437.405
JAS-2 28 Aug 13:05:01 13:09:40 18° 49° (NE) 13:14:38 435.910
Oscar 19 28 Aug 13:08:24 13:13:21 50° 69° (ENE) 13:18:23 437.125/150
Gurwin Techsat 1B 28 Aug 13:19:48 13:23:54 24° 61° (ENE) 13:28:07 435.225
AO-7 28 Aug 13:34:36 13:39:42 19° 42° (NE) 13:45:04 29.400- 29.500
ESTCUBE 1 28 Aug 13:36:38 13:40:37 31° 293° (WNW) 13:44:31 437.505/2401.250
SWISSCUBE 28 Aug 13:39:05 13:40:38 12° 85° (E) 13:42:26 437.505
Cosmos 2504 28 Aug 13:46:03 13:51:03 16° 286° (WNW) 13:55:30 435.465 / 435.565
50 SAT 28 Aug 13:58:03 13:58:58 11° 301° (WNW) 13:59:42 437.505
ITAMSAT 1 28 Aug 13:59:05 14:03:51 40° 67° (ENE) 14:08:42 435.822/435.867
DX 1 28 Aug 13:59:30 14:00:57 11° 303° (WNW) 14:02:12 434.975-435.025
AISAT 28 Aug 14:05:14 14:07:43 14° 301° (WNW) 14:10:02 437.250
Cosmos 2499 28 Aug 14:06:14 14:11:31 17° 49° (NE) 14:17:03 435.465 / 435.565
TISAT 1 28 Aug 14:09:49 14:14:06 75° 286° (WNW) 14:18:22 437.305
ITUPSAT 1 28 Aug 14:14:02 14:17:45 23° 92° (E) 14:21:34 437.325
CUBEBUG 1 28 Aug 14:17:26 14:20:12 16° 299° (WNW) 14:22:50 437.445
ISS 28 Aug 14:22:28 14:25:35 40° 4° (N) 14:28:41 145.825
SPROUT 28 Aug 14:26:52 14:30:45 31° 292° (WNW) 14:34:33 437.525
GONETS M04 28 Aug 14:29:01 14:37:46 66° 76° (ENE) 14:46:34
JAS-2 28 Aug 14:45:50 14:53:21 63° 69° (ENE) 15:01:08 435.910
DANDE 28 Aug 14:48:34 14:49:40 10° 280° (W) 14:50:09 436.750
Oscar 19 28 Aug 14:48:45 14:53:01 25° 268° (W) 14:57:13 437.125/150
BEESAT 28 Aug 14:49:11 14:53:49 48° 100° (E) 14:58:25 436.000
Gurwin Techsat 1B 28 Aug 14:58:17 15:03:32 59° 259° (W) 15:08:49 435.225
RS-15 28 Aug 15:05:15 15:07:57 12° 94° (E) 15:11:42 29.354- 29.394
SWISSCUBE 28 Aug 15:14:30 15:19:17 90° 121° (ESE) 15:24:03 437.505
STARS 28 Aug 15:17:33 15:17:50 10° 85° (E) 15:18:25 437.465
AO-7 28 Aug 15:22:52 15:31:01 61° 64° (ENE) 15:39:12 29.400- 29.500
KKS-1 28 Aug 15:24:12 15:27:31 20° 91° (E) 15:30:56 437.445
HORYU 2 28 Aug 15:36:03 15:40:16 42° 69° (ENE) 15:44:32 437.375
ITAMSAT 1 28 Aug 15:38:52 15:43:29 31° 265° (W) 15:48:03 435.822/435.867
TISAT 1 28 Aug 15:48:40 15:49:09 10° 303° (WNW) 15:49:26 437.305
BEESAT 3 28 Aug 15:49:43 15:52:42 20° 115° (ESE) 15:55:47 437.485
ITUPSAT 1 28 Aug 15:51:19 15:55:55 47° 291° (WNW) 16:00:28 437.325
BEESAT 2 28 Aug 15:56:25 15:59:13 18° 114° (ESE) 16:02:08 435.950
Cosmos 2499 28 Aug 15:58:07 16:06:55 66° 75° (ENE) 16:15:13 435.465 / 435.565
ISS 28 Aug 15:58:56 16:02:12 88° 19° (NNE) 16:05:28 145.825
GONETS M04 28 Aug 16:26:36 16:34:07 32° 277° (W) 16:41:26
BEESAT 28 Aug 16:27:34 16:31:23 24° 297° (WNW) 16:35:06 436.000
JAS-2 28 Aug 16:31:59 16:38:51 34° 270° (W) 16:45:48 435.910
MOZHAYETS 4 28 Aug 16:46:17 16:49:50 22° 91° (E) 16:53:27
STARS 28 Aug 16:50:34 16:55:05 86° 104° (ESE) 16:59:32 437.465
Cubesat XI-IV 28 Aug 16:51:31 16:54:31 16° 56° (NE) 16:57:42 437.490
SWISSCUBE 28 Aug 16:53:58 16:56:31 14° 303° (WNW) 16:58:53 437.505
KKS-1 28 Aug 17:00:05 17:04:27 48° 290° (WNW) 17:08:46 437.445
RS-15 28 Aug 17:07:22 17:17:48 56° 116° (ESE) 17:28:47 29.354- 29.394
HORYU 2 28 Aug 17:13:24 17:17:05 24° 267° (W) 17:20:42 437.375
AO-7 28 Aug 17:16:42 17:24:18 36° 265° (W) 17:31:47 29.400- 29.500
BEESAT 3 28 Aug 17:26:20 17:30:19 52° 312° (NW) 17:34:21 437.485
BEESAT 2 28 Aug 17:32:50 17:36:54 58° 312° (NW) 17:40:59 435.950
CUTE-I 28 Aug 17:35:34 17:40:14 33° 65° (ENE) 17:44:59 437.470
ISS 28 Aug 17:35:55 17:38:16 18° 221° (SW) 17:40:35 145.825
AIST 2 28 Aug 17:44:11 17:48:14 46° 121° (ESE) 17:52:20 435.215
Cosmos 2499 28 Aug 17:52:00 17:59:33 33° 277° (W) 18:06:34 435.465 / 435.565
MOZHAYETS 4 28 Aug 18:22:55 18:27:18 45° 290° (WNW) 18:31:37
Cubesat XI-IV 28 Aug 18:28:36 18:33:56 86° 77° (ENE) 18:39:19 437.490
STARS 28 Aug 18:28:41 18:30:55 13° 302° (WNW) 18:32:58 437.465
CUBESAT XI-V 28 Aug 18:29:51 18:33:35 24° 92° (E) 18:37:24 437.345
HO-68 28 Aug 18:35:33 18:39:52 18° 48° (NE) 18:44:26 435.675
Cosmos 2491 28 Aug 18:42:54 18:47:54 17° 49° (NE) 18:53:20 435.465 / 435.565
AIST 1 28 Aug 18:46:48 18:49:17 15° 64° (ENE) 18:51:55
GOMX 1 28 Aug 18:47:23 18:49:55 15° 58° (ENE) 18:52:43 467.674
BEESAT 3 28 Aug 19:07:09 19:09:11 13° 334° (NNW) 19:11:07 437.485
BEESAT 2 28 Aug 19:13:32 19:15:49 14° 333° (NNW) 19:18:00 435.950
CUTE-I 28 Aug 19:15:15 19:20:15 40° 263° (W) 19:25:15 437.470
DOVE 4 28 Aug 19:17:40 19:20:47 18° 60° (ENE) 19:24:09 437.250
RS-15 28 Aug 19:19:30 19:30:22 57° 322° (NW) 19:41:44 29.354- 29.394
AIST 2 28 Aug 19:23:14 19:26:59 28° 321° (NW) 19:30:41 435.215
COMPASS 1 28 Aug 19:31:26 19:31:51 10° 58° (ENE) 19:32:28 437.405
BRITE-PL 28 Aug 19:36:15 19:40:31 61° 73° (ENE) 19:45:09 437.365/2234.400
AAUSAT CUBESAT 2 28 Aug 19:43:46 19:45:10 12° 59° (ENE) 19:46:45 437.432
CUTE 1.7 + AOD 2 28 Aug 19:54:25 19:57:56 25° 66° (ENE) 20:01:31 437.475
CUBESAT XI-V 28 Aug 20:06:50 20:11:13 42° 290° (WNW) 20:15:35 437.345
CANX-2 28 Aug 20:07:21 20:11:17 37° 69° (ENE) 20:15:16 2200.000
STRAND 1 28 Aug 20:08:56 20:13:57 57° 100° (E) 20:19:00 437.568
Cubesat XI-IV 28 Aug 20:11:52 20:14:52 14° 274° (W) 20:17:36 437.490
HO-68 28 Aug 20:19:23 20:26:28 68° 68° (ENE) 20:33:38 435.675
O/OREOS (USA 219) 28 Aug 20:20:35 20:25:05 66° 112° (ESE) 20:29:38 437.305
GOMX 1 28 Aug 20:22:56 20:27:24 80° 258° (WSW) 20:32:14 467.674
AIST 1 28 Aug 20:23:10 20:27:26 61° 264° (W) 20:31:41
Oscar 11 28 Aug 20:23:32 20:25:55 15° 60° (ENE) 20:28:26 145.826/435.025
CINEMA 3 28 Aug 20:27:33 20:31:48 36° 67° (ENE) 20:36:17 145.822/145.860
PRISM 28 Aug 20:27:50 20:31:56 65° 102° (ESE) 20:36:00 437.425
DELFI C3 28 Aug 20:33:01 20:34:09 11° 60° (ENE) 20:35:28 145.870
SEEDS 28 Aug 20:34:57 20:39:04 51° 72° (ENE) 20:43:13 437.485
Cosmos 2491 28 Aug 20:38:19 20:47:01 65° 76° (ENE) 20:55:44 435.465 / 435.565
CUBEBUG 2 28 Aug 20:41:58 20:45:42 25° 64° (ENE) 20:49:36 437.445
YUBILEINY 28 Aug 20:52:32 20:59:46 31° 83° (E) 21:07:15 435.215
DOVE 4 28 Aug 20:53:29 20:58:01 65° 259° (W) 21:02:53 437.250
UWE-3 28 Aug 20:56:11 21:00:00 27° 65° (ENE) 21:03:57 435.000/436.395/437.385
ZACube-1 28 Aug 20:57:38 21:01:05 22° 63° (ENE) 21:04:39 437.345
COMPASS 1 28 Aug 21:02:37 21:06:50 78° 74° (ENE) 21:11:04 437.405
FUNcube-1 28 Aug 21:04:27 21:08:03 24° 65° (ENE) 21:11:48 145.935
AAUSAT CUBESAT 2 28 Aug 21:15:57 21:20:09 89° 246° (WSW) 21:24:23 437.432
BRITE-PL 28 Aug 21:16:58 21:19:41 16° 274° (W) 21:22:21 437.365/2234.400
CUTE 1.7 + AOD 2 28 Aug 21:29:43 21:33:43 36° 264° (W) 21:37:41 437.475
RS-15 28 Aug 21:35:46 21:45:49 34° 354° (N) 21:56:16 29.354- 29.394
CANX-2 28 Aug 21:43:45 21:47:20 24° 267° (W) 21:50:50 2200.000
DX 1 28 Aug 21:45:21 21:48:09 18° 61° (ENE) 21:51:06 434.975-435.025
STRAND 1 28 Aug 21:48:50 21:52:50 23° 299° (WNW) 21:56:44 437.568
AISAT 28 Aug 21:54:00 21:56:23 15° 59° (ENE) 21:58:56 437.250
Oscar 11 28 Aug 21:57:14 22:01:35 73° 257° (WSW) 22:05:58 145.826/435.025
O/OREOS (USA 219) 28 Aug 22:01:38 22:05:01 20° 313° (NW) 22:08:20 437.305
UKube-1 28 Aug 22:02:47 22:06:07 23° 64° (ENE) 22:09:33 .
PRISM 28 Aug 22:04:31 22:06:55 15° 299° (WNW) 22:09:12 437.425
DELFI C3 28 Aug 22:04:34 22:08:38 88° 254° (WSW) 22:12:43 145.870
CINEMA 3 28 Aug 22:04:54 22:09:02 30° 267° (W) 22:13:19 145.822/145.860
CUBEBUG 1 28 Aug 22:06:23 22:07:45 11° 58° (ENE) 22:09:17 437.445
HO-68 28 Aug 22:08:52 22:14:51 27° 269° (W) 22:20:43 435.675
HUMSAT D 28 Aug 22:10:20 22:14:25 43° 70° (ENE) 22:18:34 437.325/437.525
SEEDS 28 Aug 22:12:13 22:15:11 18° 270° (W) 22:18:01 437.485
CUBEBUG 2 28 Aug 22:17:43 22:22:09 44° 263° (W) 22:26:42 437.445
VELOX 1 28 Aug 22:21:53 22:25:25 25° 65° (ENE) 22:29:03 145.980
TIGRISAT 28 Aug 22:24:47 22:26:03 11° 84° (E) 22:27:33 435.000
BEESAT 3 28 Aug 22:27:29 22:28:44 11° 22° (NNE) 22:30:02 437.485
UWE-3 28 Aug 22:32:01 22:36:21 40° 264° (W) 22:40:46 435.000/436.395/437.385
ZACube-1 28 Aug 22:32:42 22:37:08 50° 262° (W) 22:41:37 437.345
BEESAT 2 28 Aug 22:34:33 22:35:35 11° 21° (NNE) 22:36:42 435.950
Cosmos 2491 28 Aug 22:35:54 22:43:23 32° 277° (W) 22:50:43 435.465 / 435.565
Cosmos 2504 28 Aug 22:36:34 22:41:41 19° 76° (ENE) 22:47:21 435.465 / 435.565
ANTELSAT 28 Aug 22:39:07 22:41:59 16° 88° (E) 22:44:57 437.575/2403.000
FUNcube-1 28 Aug 22:39:49 22:44:09 44° 263° (W) 22:48:33 145.935
COMPASS 1 28 Aug 22:41:35 22:43:07 11° 274° (W) 22:44:25 437.405
M-CUBED/EXP-1 PRIME 28 Aug 22:45:35 22:46:44 11° 90° (E) 22:48:06 437.505
YUBILEINY 28 Aug 22:47:17 22:56:02 68° 284° (WNW) 23:04:52 435.215
ESTCUBE 1 28 Aug 23:02:28 23:06:43 45° 70° (ENE) 23:11:02 437.505/2401.250
50 SAT 28 Aug 23:07:19 23:11:17 77° 76° (ENE) 23:15:16 437.505
DX 1 28 Aug 23:19:44 23:24:00 59° 259° (WSW) 23:28:20 434.975-435.025
AISAT 28 Aug 23:28:02 23:32:26 76° 257° (WSW) 23:36:53 437.250
UNISAT 6 28 Aug 23:29:01 23:33:32 48° 99° (E) 23:37:55 437.425
TISAT 1 28 Aug 23:31:19 23:33:46 16° 61° (ENE) 23:36:23 437.305
UKube-1 28 Aug 23:37:55 23:42:02 42° 262° (W) 23:46:10 .
CUBEBUG 1 28 Aug 23:39:07 23:43:27 85° 76° (ENE) 23:47:49 437.445
POLYITAN 1 28 Aug 23:41:30 23:45:03 25° 93° (E) 23:48:40 437.675
POPSAT HIP 1 28 Aug 23:45:24 23:49:03 27° 94° (E) 23:52:43 437.405
HUMSAT D 28 Aug 23:47:00 23:50:22 21° 269° (W) 23:53:40 437.325/437.525
SPROUT 28 Aug 23:48:07 23:52:01 35° 68° (ENE) 23:55:58 437.525
DUCHIFAT 1 28 Aug 23:48:54 23:52:35 28° 94° (E) 23:56:18 145.980
RS-15 28 Aug 23:51:02 00:01:55 44° 27° (NNE) 00:13:20 29.354- 29.394
VELOX 1 28 Aug 23:57:39 00:01:47 40° 262° (W) 00:05:58 145.980
TIGRISAT 28 Aug 23:58:55 00:03:36 90° 173° (S) 00:08:09 435.000
QB50P2 29 Aug 00:01:13 00:05:17 39° 97° (E) 00:09:20 145.880/145.840
BEESAT 3 29 Aug 00:03:55 00:07:45 39° 44° (NE) 00:11:33 437.485
NANOSAT C BR1 29 Aug 00:04:55 00:08:59 41° 98° (E) 00:13:03 145.865
BEESAT 2 29 Aug 00:10:59 00:14:47 36° 43° (NE) 00:18:34 435.950
BUGSAT 1 29 Aug 00:11:12 00:14:57 30° 95° (E) 00:18:44 437.445
ANTELSAT 29 Aug 00:14:39 00:19:16 63° 287° (WNW) 00:23:44 437.575/2403.000
AUBIESAT-1 29 Aug 00:16:00 00:20:11 87° 104° (ESE) 00:24:00 437.475
QB50P1 29 Aug 00:17:03 00:21:18 56° 100° (E) 00:25:31 145.935-145.965
M-CUBED/EXP-1 PRIME 29 Aug 00:18:02 00:22:16 76° 291° (WNW) 00:26:07 437.505
BEESAT 29 Aug 00:24:24 00:26:25 13° 56° (ENE) 00:28:38 436.000
Cosmos 2504 29 Aug 00:24:33 00:32:38 82° 97° (E) 00:41:16 435.465 / 435.565
AIST 2 29 Aug 00:24:47 00:27:43 18° 31° (NNE) 00:30:41 435.215
CUSAT 1 29 Aug 00:30:45 00:34:07 31° 88° (E) 00:38:30 437.405
DANDE 29 Aug 00:35:44 00:38:12 19° 84° (E) 00:41:15 436.750
ESTCUBE 1 29 Aug 00:40:18 00:43:50 22° 268° (W) 00:47:17 437.505/2401.250
50 SAT 29 Aug 00:45:28 00:46:24 10° 274° (W) 00:47:06 437.505
SWISSCUBE 29 Aug 00:48:03 00:51:36 22° 62° (ENE) 00:55:15 437.505
YUBILEINY 29 Aug 00:49:22 00:55:03 18° 310° (NW) 01:00:22 435.215
TISAT 1 29 Aug 01:04:55 01:09:05 64° 258° (WSW) 01:13:19 437.305
UNISAT 6 29 Aug 01:06:21 01:10:00 23° 297° (WNW) 01:13:30 437.425
POLYITAN 1 29 Aug 01:17:03 01:21:04 36° 291° (WNW) 01:25:00 437.675
Oscar 19 29 Aug 01:18:08 01:20:29 13° 85° (E) 01:23:06 437.125/150
SO-50 29 Aug 01:19:00 01:21:07 13° 109° (ESE) 01:23:28 436.795
CUBEBUG 1 29 Aug 01:19:15 01:20:31 11° 275° (W) 01:21:32 437.445
POPSAT HIP 1 29 Aug 01:21:02 01:24:58 34° 292° (WNW) 01:28:51 437.405
ITUPSAT 1 29 Aug 01:23:52 01:28:17 39° 68° (ENE) 01:32:45 437.325
SPROUT 29 Aug 01:24:32 01:28:10 26° 267° (W) 01:31:46 437.525
DUCHIFAT 1 29 Aug 01:24:32 01:28:25 33° 292° (WNW) 01:32:13 145.980
TIGRISAT 29 Aug 01:37:21 01:39:40 14° 302° (WNW) 01:41:48 435.000
QB50P2 29 Aug 01:37:29 01:40:59 24° 295° (WNW) 01:44:25 145.880/145.840
NANOSAT C BR1 29 Aug 01:41:10 01:44:37 23° 295° (WNW) 01:47:57 145.865
BEESAT 3 29 Aug 01:42:06 01:45:33 27° 243° (WSW) 01:48:53 437.485
GONETS M04 29 Aug 01:43:21 01:47:12 14° 73° (ENE) 01:51:36
BUGSAT 1 29 Aug 01:46:39 01:50:22 30° 293° (WNW) 01:54:04 437.445
BEESAT 2 29 Aug 01:49:10 01:52:45 30° 242° (WSW) 01:56:15 435.950
AUBIESAT-1 29 Aug 01:52:19 01:54:12 13° 309° (NW) 01:55:55 437.475
PCSat 29 Aug 01:52:27 01:55:02 14° 105° (ESE) 01:57:54 145.827
QB50P1 29 Aug 01:53:48 01:56:47 18° 298° (WNW) 01:59:39 145.935-145.965
M-CUBED/EXP-1 PRIME 29 Aug 01:54:56 01:56:15 11° 311° (NW) 01:57:23 437.505
BEESAT 29 Aug 01:58:48 02:03:34 82° 76° (ENE) 02:08:23 436.000
AIST 2 29 Aug 02:02:41 02:06:54 88° 56° (NE) 02:11:03 435.215
RS-15 29 Aug 02:04:01 02:15:50 86° 234° (SW) 02:28:05 29.354- 29.394
CUSAT 1 29 Aug 02:13:17 02:16:45 27° 298° (WNW) 02:21:04 437.405
STARS 29 Aug 02:16:24 02:18:58 16° 60° (ENE) 02:21:41 437.465
DANDE 29 Aug 02:17:44 02:20:56 32° 294° (WNW) 02:25:02 436.750
Cosmos 2504 29 Aug 02:19:14 02:26:03 27° 301° (WNW) 02:32:54 435.465 / 435.565
SWISSCUBE 29 Aug 02:24:26 02:29:08 55° 260° (W) 02:33:49 437.505
KKS-1 29 Aug 02:25:27 02:29:16 29° 65° (ENE) 02:33:08 437.445
Oscar 19 29 Aug 02:55:27 03:00:42 90° 64° (ENE) 03:05:55 437.125/150
SO-50 29 Aug 02:56:07 03:00:57 83° 127° (SE) 03:05:56 436.795
ITUPSAT 1 29 Aug 03:02:09 03:06:18 28° 266° (W) 03:10:23 437.325
Gurwin Techsat 1B 29 Aug 03:10:58 03:16:02 43° 97° (E) 03:21:05 435.225
AO-7 29 Aug 03:23:00 03:26:34 14° 81° (E) 03:30:42 29.400- 29.500
PCSat 29 Aug 03:32:18 03:37:44 84° 123° (ESE) 03:43:12 145.827
GONETS M04 29 Aug 03:33:56 03:42:28 67° 94° (E) 03:51:07
JAS-2 29 Aug 03:37:50 03:44:40 42° 93° (E) 03:50:49 435.910
BEESAT 29 Aug 03:39:42 03:42:07 13° 274° (W) 03:44:18 436.000
AIST 2 29 Aug 03:43:14 03:44:52 12° 250° (WSW) 03:46:17 435.215
ITAMSAT 1 29 Aug 03:47:18 03:52:30 72° 103° (ESE) 03:57:41 435.822/435.867
STARS 29 Aug 03:50:31 03:54:55 71° 257° (WSW) 03:59:22 437.465
MOZHAYETS 4 29 Aug 03:51:17 03:55:21 32° 67° (ENE) 03:59:28
KKS-1 29 Aug 04:01:43 04:05:48 35° 264° (W) 04:09:54 437.445
RS-15 29 Aug 04:17:36 04:27:00 27° 256° (WSW) 04:36:08 29.354- 29.394
Oscar 19 29 Aug 04:36:14 04:39:24 16° 303° (WNW) 04:42:24 437.125/150
Cosmos 2499 29 Aug 04:37:46 04:45:42 48° 89° (E) 04:54:06 435.465 / 435.565
SO-50 29 Aug 04:38:06 04:42:06 24° 328° (NNW) 04:46:07 436.795
O/OREOS (USA 219) 29 Aug 04:48:12 04:52:19 31° 53° (NE) 04:56:26 437.305
Gurwin Techsat 1B 29 Aug 04:51:14 04:55:53 31° 296° (WNW) 05:00:28 435.225
HORYU 2 29 Aug 05:00:03 05:04:26 51° 100° (E) 05:08:47 437.375
AO-7 29 Aug 05:13:01 05:21:18 65° 104° (ESE) 05:29:32 29.400- 29.500
PCSat 29 Aug 05:17:28 05:21:51 24° 324° (NW) 05:26:11 145.827
JAS-2 29 Aug 05:22:52 05:29:50 45° 296° (WNW) 05:36:00 435.910
ITAMSAT 1 29 Aug 05:27:49 05:31:31 20° 301° (WNW) 05:35:05 435.822/435.867
MOZHAYETS 4 29 Aug 05:28:22 05:32:33 32° 265° (W) 05:36:42
GONETS M04 29 Aug 05:32:24 05:40:06 33° 297° (WNW) 05:47:41
CUBESAT XI-V 29 Aug 05:36:25 05:40:33 34° 68° (ENE) 05:44:44 437.345
STRAND 1 29 Aug 05:51:12 05:54:37 19° 59° (ENE) 05:58:11 437.568
SO-50 29 Aug 06:22:34 06:24:24 12° 352° (N) 06:26:13 436.795
O/OREOS (USA 219) 29 Aug 06:27:34 06:31:48 36° 253° (WSW) 06:35:59 437.305
Cosmos 2499 29 Aug 06:30:52 06:39:01 46° 291° (WNW) 06:47:27 435.465 / 435.565
HORYU 2 29 Aug 06:37:23 06:40:46 21° 298° (WNW) 06:44:00 437.375
VERMONT LUNAR 29 Aug 06:38:08 06:40:13 17° 170° (S) 06:42:19 437.305
Cubesat XI-IV 29 Aug 06:42:52 06:47:16 26° 92° (E) 06:51:46 437.490
YUBILEINY 29 Aug 06:57:24 07:03:17 20° 52° (NE) 07:09:31 435.215
AO-7 29 Aug 07:06:20 07:13:44 36° 305° (NW) 07:20:58 29.400- 29.500
PCSat 29 Aug 07:06:22 07:07:22 10° 350° (N) 07:08:17 145.827
JAS-2 29 Aug 07:10:26 07:13:04 12° 318° (NW) 07:15:17 435.910
CUBESAT XI-V 29 Aug 07:13:59 07:18:02 30° 266° (W) 07:22:03 437.345
PRISM 29 Aug 07:20:48 07:24:53 75° 74° (ENE) 07:28:59 437.425
STRAND 1 29 Aug 07:28:14 07:33:20 73° 257° (WSW) 07:38:28 437.568
CUTE-I 29 Aug 07:28:17 07:33:35 63° 101° (ESE) 07:38:52 437.470
BRITE-PL 29 Aug 07:37:24 07:41:10 20° 88° (E) 07:45:15 437.365/2234.400
Cosmos 2491 29 Aug 07:52:53 07:56:37 14° 73° (ENE) 08:00:55 435.465 / 435.565
PHONESAT 2.4 29 Aug 08:01:53 08:03:52 15° 161° (SSE) 08:05:54 2401.200-2431.200
SO-50 29 Aug 08:04:28 08:07:02 14° 17° (NNE) 08:09:40 436.795
VERMONT LUNAR 29 Aug 08:13:52 08:16:07 19° 186° (S) 08:18:21 437.305
GOMX 1 29 Aug 08:21:01 08:25:35 28° 92° (E) 08:30:20 467.674
Cubesat XI-IV 29 Aug 08:22:32 08:27:40 49° 292° (WNW) 08:32:45 437.490
Cosmos 2499 29 Aug 08:31:50 08:35:12 12° 318° (NW) 08:38:06 435.465 / 435.565
DOVE 4 29 Aug 08:48:55 08:53:35 31° 93° (E) 08:58:18 437.250
PCSat 29 Aug 08:51:31 08:53:22 12° 16° (NNE) 08:55:19 145.827
YUBILEINY 29 Aug 08:53:09 09:02:03 75° 78° (ENE) 09:10:52 435.215
AIST 1 29 Aug 08:55:47 08:59:59 64° 96° (E) 09:04:13
AAUSAT CUBESAT 2 29 Aug 08:57:32 08:58:49 11° 86° (E) 09:00:19 437.432
UNISAT 6 29 Aug 08:58:59 08:59:27 10° 55° (NE) 09:00:08 437.425
PRISM 29 Aug 08:59:27 09:00:55 11° 273° (W) 09:02:09 437.425
AO-7 29 Aug 09:01:37 09:04:12 12° 329° (NNW) 09:06:30 29.400- 29.500
CUTE-I 29 Aug 09:09:09 09:13:17 23° 300° (WNW) 09:17:17 437.470
CUTE 1.7 + AOD 2 29 Aug 09:11:23 09:15:06 29° 94° (E) 09:18:50 437.475
BRITE-PL 29 Aug 09:14:50 09:20:11 71° 287° (WNW) 09:25:48 437.365/2234.400
CUSAT 1 29 Aug 09:20:13 09:22:53 12° 50° (NE) 09:26:09 437.405
CANX-2 29 Aug 09:24:42 09:28:47 44° 98° (E) 09:32:50 2200.000
TIGRISAT 29 Aug 09:25:56 09:28:54 17° 60° (ENE) 09:32:01 435.000
HO-68 29 Aug 09:30:52 09:37:52 52° 100° (E) 09:44:52 435.675
AUBIESAT-1 29 Aug 09:31:50 09:35:47 27° 59° (ENE) 09:39:44 437.475
M-CUBED/EXP-1 PRIME 29 Aug 09:33:57 09:38:11 32° 61° (ENE) 09:42:25 437.505
PHONESAT 2.4 29 Aug 09:38:20 09:41:08 24° 178° (S) 09:43:57 2401.200-2431.200
ANTELSAT 29 Aug 09:40:57 09:44:37 24° 64° (ENE) 09:48:24 437.575/2403.000
Oscar 11 29 Aug 09:42:14 09:44:56 16° 89° (E) 09:47:45 145.826/435.025
Cosmos 2491 29 Aug 09:43:21 09:51:55 66° 93° (E) 10:00:32 435.465 / 435.565
SO-50 29 Aug 09:44:24 09:49:01 36° 40° (NE) 09:53:33 436.795
SEEDS 29 Aug 09:51:20 09:55:31 62° 101° (ESE) 09:59:40 437.485
CINEMA 3 29 Aug 09:55:30 10:00:29 55° 99° (E) 10:05:21 145.822/145.860
GOMX 1 29 Aug 09:58:44 10:03:54 49° 290° (WNW) 10:09:10 467.674
CUBEBUG 2 29 Aug 10:05:27 10:09:43 33° 94° (E) 10:13:55 437.445
Cosmos 2504 29 Aug 10:07:19 10:15:03 36° 65° (ENE) 10:22:34 435.465 / 435.565
ISS 29 Aug 10:16:34 10:19:05 21° 140° (SE) 10:21:40 145.825
COMPASS 1 29 Aug 10:18:04 10:22:16 87° 284° (WNW) 10:26:25 437.405
ZACube-1 29 Aug 10:18:17 10:22:05 26° 92° (E) 10:25:53 437.345
UWE-3 29 Aug 10:18:28 10:22:42 34° 95° (E) 10:26:51 435.000/436.395/437.385
FUNcube-1 29 Aug 10:24:55 10:28:53 29° 94° (E) 10:32:47 145.935
DOVE 4 29 Aug 10:26:26 10:31:26 43° 291° (WNW) 10:36:24 437.250
UNISAT 6 29 Aug 10:30:44 10:35:22 64° 73° (ENE) 10:40:05 437.425
AAUSAT CUBESAT 2 29 Aug 10:30:52 10:35:02 75° 285° (WNW) 10:39:08 437.432
PCSat 29 Aug 10:33:54 10:38:39 30° 40° (NE) 10:43:27 145.827
AIST 1 29 Aug 10:35:46 10:38:11 14° 297° (WNW) 10:40:27
POLYITAN 1 29 Aug 10:37:37 10:41:19 30° 67° (ENE) 10:45:06 437.675
POPSAT HIP 1 29 Aug 10:41:19 10:45:03 31° 67° (ENE) 10:48:52 437.405
DUCHIFAT 1 29 Aug 10:44:20 10:48:05 32° 68° (ENE) 10:51:55 145.980
CUTE 1.7 + AOD 2 29 Aug 10:47:16 10:51:00 30° 293° (WNW) 10:54:39 437.475
YUBILEINY 29 Aug 10:50:58 10:58:08 28° 279° (W) 11:05:00 435.215
BRITE-PL 29 Aug 10:55:19 10:57:57 14° 303° (WNW) 11:00:25 437.365/2234.400
QB50P2 29 Aug 10:57:09 11:01:13 46° 71° (ENE) 11:05:21 145.880/145.840
CUSAT 1 29 Aug 11:00:10 11:07:12 49° 71° (ENE) 11:15:08 437.405
NANOSAT C BR1 29 Aug 11:00:25 11:04:29 47° 71° (ENE) 11:08:37 145.865
TIGRISAT 29 Aug 11:00:28 11:05:08 71° 258° (WSW) 11:09:53 435.000
CANX-2 29 Aug 11:01:13 11:04:27 21° 296° (WNW) 11:07:34 2200.000
BUGSAT 1 29 Aug 11:04:30 11:08:07 32° 68° (ENE) 11:11:50 437.445
DX 1 29 Aug 11:05:22 11:08:23 18° 91° (E) 11:11:31 434.975-435.025
AUBIESAT-1 29 Aug 11:05:41 11:10:16 46° 256° (WSW) 11:14:47 437.475
DANDE 29 Aug 11:07:28 11:13:57 40° 69° (ENE) 11:21:39 436.750
M-CUBED/EXP-1 PRIME 29 Aug 11:08:21 11:12:51 38° 258° (WSW) 11:17:18 437.505
QB50P1 29 Aug 11:12:44 11:16:56 64° 73° (ENE) 11:21:11 145.935-145.965
DELFI C3 29 Aug 11:15:00 11:19:01 83° 285° (WNW) 11:23:00 145.870
PHONESAT 2.4 29 Aug 11:16:01 11:18:27 18° 194° (SSW) 11:20:52 2401.200-2431.200
AISAT 29 Aug 11:16:13 11:19:01 17° 89° (E) 11:21:58 437.250
ANTELSAT 29 Aug 11:16:35 11:21:07 48° 262° (W) 11:25:43 437.575/2403.000
Oscar 11 29 Aug 11:17:16 11:21:31 56° 288° (WNW) 11:25:43 145.826/435.025
HO-68 29 Aug 11:18:54 11:25:28 39° 300° (WNW) 11:31:56 435.675
UKube-1 29 Aug 11:22:06 11:25:36 24° 93° (E) 11:29:11 .
SO-50 29 Aug 11:24:57 11:29:41 44° 240° (WSW) 11:34:16 436.795
CUBEBUG 1 29 Aug 11:26:14 11:28:05 13° 87° (E) 11:30:08 437.445
HUMSAT D 29 Aug 11:26:21 11:30:32 50° 99° (E) 11:34:39 437.325/437.525
SEEDS 29 Aug 11:28:16 11:30:52 16° 298° (WNW) 11:33:20 437.485
